• In Latvia
  • List of Countries
  • For 7 days
  • Water Temperature
  • Satellite Maps
  • Weather Map
  • Weather Widgets
  • user-avatar
    Login

    Hourly Weather Hebdow

    Today, 21 October, Sunday

    Time Temperature Precipitation Wind Pressure Humidity
    00:00 +7°C° 0.1 mm 4 mps 747 mmHg 81%
    01:00 +6°C° 0.1 mm 4 mps 747 mmHg 83%
    02:00 +7°C° 0.2 mm 3 mps 747 mmHg 85%
    03:00 +7°C° 0.2 mm 3 mps 747 mmHg 88%
    04:00 +7°C° 0.2 mm 3 mps 747 mmHg 91%
    05:00 +7°C° 0.2 mm 3 mps 747 mmHg 90%
    06:00 +7°C° 0.2 mm 3 mps 747 mmHg 89%
    07:00 +6°C° 0 mm 4 mps 748 mmHg 88%
    08:00 +8°C° 0.1 mm 3 mps 748 mmHg 85%
    09:00 +8°C° 0.1 mm 3 mps 749 mmHg 82%
    10:00 +9°C° 0.1 mm 3 mps 749 mmHg 79%
    11:00 +9°C° 0 mm 3 mps 749 mmHg 74%
    12:00 +10°C° 0 mm 3 mps 749 mmHg 69%
    13:00 +11°C° 0 mm 3 mps 749 mmHg 64%
    14:00 +12°C° 0 mm 2 mps 749 mmHg 65%
    15:00 +12°C° 0 mm 2 mps 749 mmHg 66%
    16:00 +12°C° 0 mm 2 mps 749 mmHg 68%
    17:00 +10°C° 0 mm 2 mps 749 mmHg 72%
    18:00 +9°C° 0 mm 1 mps 749 mmHg 76%
    19:00 +8°C° 0 mm 1 mps 749 mmHg 80%
    20:00 +8°C° 0 mm 1 mps 750 mmHg 81%
    21:00 +8°C° 0 mm 1 mps 750 mmHg 83%
    22:00 +7°C° 0 mm 1 mps 750 mmHg 85%
    23:00 +7°C° 0 mm 1 mps 750 mmHg 85%

    Tomorrow, 22 October, Monday

    Time Temperature Precipitation Wind Pressure Humidity
    00:00 +6°C° 0 mm 1 mps 750 mmHg 86%
    01:00 +5°C° 0 mm 0 mps 749 mmHg 87%
    02:00 +5°C° 0 mm 0 mps 749 mmHg 87%
    03:00 +5°C° 0 mm 0 mps 749 mmHg 88%
    04:00 +4°C° 0 mm 0 mps 749 mmHg 88%
    05:00 +5°C° 0 mm 0 mps 749 mmHg 87%
    06:00 +5°C° 0 mm 0 mps 749 mmHg 86%
    07:00 +5°C° 0 mm 0 mps 749 mmHg 86%
    08:00 +7°C° 0 mm 0 mps 749 mmHg 77%
    09:00 +9°C° 0 mm 0 mps 749 mmHg 68%
    10:00 +11°C° 0 mm 0 mps 749 mmHg 59%
    11:00 +13°C° 0 mm 1 mps 748 mmHg 56%
    12:00 +13°C° 0 mm 1 mps 748 mmHg 53%
    13:00 +14°C° 0 mm 1 mps 747 mmHg 49%
    14:00 +14°C° 0 mm 1 mps 747 mmHg 53%
    15:00 +13°C° 0 mm 1 mps 747 mmHg 56%
    16:00 +12°C° 0 mm 1 mps 746 mmHg 59%
    17:00 +11°C° 0 mm 1 mps 746 mmHg 63%
    18:00 +9°C° 0 mm 2 mps 746 mmHg 67%
    19:00 +8°C° 0 mm 2 mps 746 mmHg 70%
    20:00 +8°C° 0 mm 2 mps 747 mmHg 72%
    21:00 +8°C° 0 mm 2 mps 747 mmHg 73%
    22:00 +8°C° 0 mm 3 mps 747 mmHg 74%
    23:00 +8°C° 0.2 mm 3 mps 747 mmHg 76%

    Day after tomorrow, 23 October, Tuesday

    Time Temperature Precipitation Wind Pressure Humidity
    00:00 +7°C° 0.2 mm 4 mps 747 mmHg 79%
    01:00 +7°C° 0.2 mm 4 mps 747 mmHg 81%
    02:00 +7°C° 0.1 mm 4 mps 746 mmHg 83%
    03:00 +6°C° 0.1 mm 4 mps 746 mmHg 84%
    04:00 +5°C° 0.1 mm 4 mps 746 mmHg 85%
    05:00 +5°C° 0 mm 4 mps 746 mmHg 87%
    06:00 +4°C° 0 mm 3 mps 746 mmHg 88%
    07:00 +4°C° 0 mm 3 mps 746 mmHg 90%
    08:00 +5°C° 0 mm 4 mps 745 mmHg 82%
    09:00 +6°C° 0 mm 5 mps 745 mmHg 74%
    10:00 +7°C° 0 mm 5 mps 745 mmHg 66%
    11:00 +7°C° 0.2 mm 6 mps 744 mmHg 65%
    12:00 +7°C° 0.2 mm 6 mps 743 mmHg 63%
    13:00 +7°C° 0.2 mm 6 mps 742 mmHg 61%
    14:00 +6°C° 0.2 mm 7 mps 741 mmHg 63%
    15:00 +6°C° 0.2 mm 7 mps 740 mmHg 65%
    16:00 +6°C° 0.2 mm 7 mps 739 mmHg 67%
    17:00 +6°C° 0.4 mm 8 mps 738 mmHg 70%
    18:00 +6°C° 0.4 mm 8 mps 737 mmHg 73%
    19:00 +6°C° 0.4 mm 9 mps 736 mmHg 76%
    20:00 +6°C° 0.7 mm 9 mps 735 mmHg 77%
    21:00 +6°C° 0.7 mm 10 mps 734 mmHg 78%
    22:00 +6°C° 0.7 mm 10 mps 733 mmHg 79%
    23:00 +7°C° 0.6 mm 10 mps 732 mmHg 79%

    24 October, Wednesday

    Time Temperature Precipitation Wind Pressure Humidity
    00:00 +8°C° 0.6 mm 10 mps 731 mmHg 80%
    01:00 +9°C° 0.6 mm 11 mps 730 mmHg 80%
    02:00 +8°C° 1.7 mm 10 mps 729 mmHg 79%
    03:00 +8°C° 1.7 mm 10 mps 729 mmHg 78%
    04:00 +8°C° 1.7 mm 9 mps 728 mmHg 77%
    05:00 +6°C° 0.4 mm 9 mps 729 mmHg 74%
    06:00 +5°C° 0.4 mm 10 mps 730 mmHg 71%
    07:00 +3°C° 0.4 mm 10 mps 731 mmHg 68%
    08:00 +3°C° 0.1 mm 10 mps 731 mmHg 62%
    09:00 +5°C° 0.1 mm 10 mps 732 mmHg 56%
    10:00 +4°C° 0.1 mm 11 mps 733 mmHg 50%
    11:00 +4°C° 0 mm 11 mps 733 mmHg 48%
    12:00 +4°C° 0 mm 11 mps 733 mmHg 46%
    13:00 +6°C° 0 mm 11 mps 734 mmHg 44%
    14:00 +5°C° 0 mm 10 mps 734 mmHg 46%
    15:00 +5°C° 0 mm 10 mps 734 mmHg 47%
    16:00 +5°C° 0 mm 9 mps 735 mmHg 49%
    17:00 +3°C° 0 mm 9 mps 735 mmHg 50%
    18:00 +4°C° 0 mm 8 mps 736 mmHg 52%
    19:00 +4°C° 0 mm 8 mps 737 mmHg 53%
    20:00 +2°C° 0 mm 8 mps 737 mmHg 56%
    21:00 +3°C° 0 mm 7 mps 737 mmHg 58%
    22:00 +2°C° 0 mm 7 mps 738 mmHg 60%
    23:00 +2°C° 0 mm 6 mps 738 mmHg 63%

    25 October, Thursday

    Time Temperature Precipitation Wind Pressure Humidity
    00:00 +2°C° 0 mm 6 mps 738 mmHg 65%
    01:00 +1°C° 0 mm 6 mps 739 mmHg 67%
    02:00 +1°C° 0 mm 6 mps 739 mmHg 69%
    03:00 +1°C° 0 mm 6 mps 739 mmHg 72%
    04:00 +1°C° 0 mm 5 mps 739 mmHg 74%
    05:00 +1°C° 0 mm 6 mps 739 mmHg 75%
    06:00 +2°C° 0 mm 6 mps 739 mmHg 76%
    07:00 +2°C° 0 mm 6 mps 738 mmHg 77%
    08:00 +3°C° 0.4 mm 6 mps 738 mmHg 79%
    09:00 +4°C° 0.4 mm 6 mps 737 mmHg 81%
    10:00 +5°C° 0.4 mm 7 mps 737 mmHg 83%
    11:00 +6°C° 0.6 mm 7 mps 736 mmHg 82%
    12:00 +7°C° 0.6 mm 8 mps 736 mmHg 81%
    13:00 +9°C° 0.6 mm 8 mps 735 mmHg 80%
    14:00 +9°C° 0.1 mm 8 mps 735 mmHg 81%
    15:00 +9°C° 0.1 mm 8 mps 735 mmHg 82%
    16:00 +9°C° 0.1 mm 7 mps 735 mmHg 82%
    17:00 +9°C° 0.1 mm 7 mps 736 mmHg 83%
    18:00 +9°C° 0.1 mm 7 mps 736 mmHg 83%
    19:00 +9°C° 0.1 mm 7 mps 736 mmHg 84%
    20:00 +9°C° 0.2 mm 7 mps 736 mmHg 83%
    21:00 +9°C° 0.2 mm 7 mps 737 mmHg 83%
    22:00 +9°C° 0.2 mm 7 mps 737 mmHg 82%
    23:00 +8°C° 0.1 mm 6 mps 737 mmHg 84%

    26 October, Friday

    Time Temperature Precipitation Wind Pressure Humidity
    00:00 +8°C° 0.1 mm 6 mps 737 mmHg 85%
    01:00 +8°C° 0.1 mm 5 mps 737 mmHg 86%
    02:00 +8°C° 0.1 mm 5 mps 737 mmHg 86%
    03:00 +8°C° 0.1 mm 5 mps 737 mmHg 86%
    04:00 +8°C° 0.1 mm 6 mps 737 mmHg 86%
    05:00 +8°C° 0 mm 5 mps 738 mmHg 86%
    06:00 +7°C° 0 mm 5 mps 738 mmHg 87%
    07:00 +7°C° 0 mm 4 mps 738 mmHg 87%
    08:00 +8°C° 0 mm 4 mps 738 mmHg 83%
    09:00 +10°C° 0 mm 4 mps 738 mmHg 78%
    10:00 +11°C° 0 mm 4 mps 738 mmHg 74%
    11:00 +12°C° 0 mm 4 mps 738 mmHg 68%
    12:00 +13°C° 0 mm 4 mps 738 mmHg 63%
    13:00 +14°C° 0 mm 3 mps 737 mmHg 58%
    14:00 +13°C° 0 mm 3 mps 737 mmHg 61%
    15:00 +13°C° 0 mm 2 mps 736 mmHg 65%
    16:00 +13°C° 0 mm 2 mps 736 mmHg 68%
    17:00 +12°C° 0 mm 2 mps 736 mmHg 72%
    18:00 +10°C° 0 mm 2 mps 736 mmHg 75%
    19:00 +9°C° 0 mm 2 mps 735 mmHg 79%
    20:00 +8°C° 0 mm 2 mps 735 mmHg 81%
    21:00 +8°C° 0 mm 2 mps 735 mmHg 82%
    22:00 +8°C° 0 mm 2 mps 734 mmHg 84%
    23:00 +8°C° 0 mm 2 mps 734 mmHg 85%
    Show more